Volver al catálogo

PIESAT-2 12

ActivoCienciaSSO
NORAD 62336·PAYLOAD·🇨🇳 China

Lanzado Dec 16, 2024 desde Taiyuan Satellite Launch Center

Loading…

Próximos Pases (próximas 24 horas)

TLE

ActualizadoSource: Space-Track

Época: Sep 14, 2026, 13:57 UTC

1 62336U 24241D   26257.58171738  .00005903  00000-0  31720-3 0  9998
2 62336  97.5304 204.1325 0001717  70.1157 290.0260 15.15274912 96331

Sigue PIESAT-2 12 en tiempo real con AllMySat

Download on the App Store